[[[{"header":{"parameterUnit":"kt","parameterCategory":2,"dx":1,"dy":1,"la1":30.253999710083008,"la2":30.299108505249023,"lo1":-89.0895004272461,"lo2":-89.04439544677734,"nx":28,"ny":28,"refTime":"2022-09-20T15:00:00:Z","depth":0,"parameterNumber":1,"parameterNumberName":"U-component_of_WINDS"},"data":[2.3165,2.3218,2.3202,2.3256,2.3251,2.3284,2.3291,2.3299,2.33,2.3339,2.3358,2.3348,2.3343,2.3362,2.3382,2.3377,2.3386,2.3417,2.3405,2.3283,2.3265,2.3248,2.3234,2.3419,2.342,2.3534,2.3535,2.3536,2.3075,2.3071,2.3095,2.3107,2.3127,2.3087,2.3094,2.3113,2.3145,2.3148,2.3166,2.3199,2.3223,2.3207,2.3228,2.3252,2.3235,2.3259,2.3256,2.3256,2.3125,2.311,2.3272,2.3272,2.3272,2.3272,2.3272,2.3272,2.2908,2.2941,2.2939,2.2965,2.2966,2.2975,2.3004,2.2989,2.3013,2.3032,2.3008,2.3044,2.3043,2.306,2.3061,2.3088,2.3059,2.308,2.3085,2.3091,2.3099,2.2935,2.3091,2.3091,2.309,2.309,2.3089,0,2.278,2.2764,2.2786,2.2804,2.2821,2.2833,2.2841,2.2859,2.2819,2.2841,2.287,2.2884,2.2911,2.2937,2.2952,2.2949,2.291,2.2905,2.2919,2.293,2.2938,2.2934,2.272,2.29,2.2898,2.2897,2.2896,2.2896,2.261,2.2651,2.264,2.2658,2.2658,2.2688,2.2702,2.2664,2.2681,2.2685,2.2716,2.2741,2.2759,2.2809,2.2792,2.2813,2.2794,2.2864,2.2796,2.2806,2.2793,2.2791,2.2794,2.2878,2.288,2.2882,2.2883,0,2.2515,2.2488,2.2546,2.2532,2.2529,2.2574,2.2562,2.2594,2.2577,2.2618,2.2625,2.2598,2.2628,2.2599,2.2627,2.2611,2.2684,2.2666,2.2684,2.2678,2.2737,2.2732,2.2937,2.2961,2.2769,2.2771,2.2773,0,2.2358,2.2414,2.237,2.2405,2.2465,2.2425,2.2486,2.2477,2.2476,2.2508,2.2459,2.249,2.2449,2.2476,2.2452,2.2507,2.2513,2.2503,2.2496,2.2507,2.2508,2.2515,2.2506,2.248,2.2479,2.2478,2.2477,0,2.2211,2.2254,2.2311,2.2316,2.2307,2.2335,2.2332,2.233,2.2345,2.2359,2.2367,2.2387,2.2398,2.2414,2.2383,2.2338,2.245,2.2382,2.244,2.2441,2.2466,2.2464,2.2654,2.2476,2.2476,2.2475,2.2475,0,2.208,2.2095,2.2183,2.2173,2.2186,2.2224,2.224,2.2266,2.2268,2.2255,2.2266,2.223,2.2276,2.221,2.2272,2.2222,2.2236,2.2231,2.2235,2.2236,2.2164,2.2273,2.2457,2.2475,2.2239,2.2237,2.2235,0,2.192,2.2001,2.1967,2.2051,2.2085,2.2026,2.2068,2.2071,2.2058,2.2084,2.2069,2.2099,2.2044,2.205,2.2085,2.207,2.2136,2.2061,2.2099,2.21,2.2099,2.2268,2.2302,2.242,2.221,2.2212,2.2214,0,2.1791,2.1779,2.1797,2.1801,2.1798,2.1826,2.1875,2.1896,2.1915,2.1924,2.1963,2.2006,2.1966,2.1976,2.1948,2.1986,2.209,2.1938,2.1937,2.1966,2.2195,2.2226,2.2247,2.2063,2.2066,2.2069,2.2194,0,2.1598,2.1635,2.1681,2.1692,2.1709,2.1761,2.173,2.1752,2.1723,2.1707,2.1765,2.176,2.1782,2.1797,2.177,2.1866,2.1845,2.1803,2.1736,2.1848,2.1888,2.1905,2.1679,2.1676,2.1675,2.1673,0,0,2.145,2.1503,2.1464,2.1509,2.1521,2.1459,2.1517,2.1522,2.1533,2.1542,2.1505,2.1565,2.1563,2.1636,2.1668,2.1678,2.1691,2.1654,2.1795,2.1809,2.1822,2.1865,2.1883,2.167,2.1669,2.1669,2.1668,0,2.1372,2.1372,2.1429,2.1432,2.1435,2.1415,2.1429,2.1421,2.1414,2.147,2.1418,2.1449,2.1499,2.1503,2.1511,2.1644,2.1604,2.1654,2.1735,2.1778,2.1794,2.1808,2.1855,2.1872,2.1664,2.1664,2.1664,0,2.124,2.1233,2.1258,2.1283,2.1284,2.132,2.1242,2.1285,2.1311,2.1242,2.1298,2.1292,2.1295,2.1369,2.1401,2.1367,2.1525,2.1471,2.1481,2.1484,2.1524,2.1543,2.1561,2.1332,2.1331,2.133,0,0,2.1177,2.1212,2.1193,2.1264,2.1268,2.124,2.1256,2.1229,2.1233,2.1235,2.1226,2.1232,2.126,2.1279,2.1304,2.1389,2.1386,2.1431,2.1447,2.1459,2.1469,2.1513,2.1532,2.1326,2.1326,2.1326,0,0,2.1147,2.1128,2.1098,2.1176,2.1182,2.1168,2.1212,2.1175,2.1194,2.1185,2.1141,2.1141,2.1209,2.1205,2.1156,2.1279,2.1214,2.1225,2.128,2.1299,2.1314,2.1314,2.1076,0,0,0,0,0,2.1051,2.113,2.1103,2.1111,2.1142,2.1183,2.1186,2.1152,2.1106,2.1142,2.1128,2.1083,2.1169,2.1125,2.1134,2.1189,2.1276,2.1285,2.1293,2.1383,2.1404,2.1421,0,0,0,0,0,0,2.1054,2.1064,2.1101,2.1091,2.1097,2.118,2.1094,2.1087,2.1101,2.1092,2.1087,2.1083,2.1055,2.1118,2.1127,2.1179,2.1073,2.128,2.1287,2.1294,2.139,2.1407,2.1421,0,0,0,0,0,2.1056,2.1064,2.1123,2.109,2.1095,2.1068,2.1091,2.1084,2.1095,2.1074,2.1068,2.1068,2.1057,2.1062,2.1123,2.1176,2.1067,2.107,2.1284,2.129,2.1296,2.1398,0,0,0,0,0,0,2.1058,2.1059,2.1123,2.1124,2.1057,2.1063,2.1063,2.1082,2.1075,2.107,2.1051,2.1044,2.106,2.1063,2.1067,2.1177,2.1061,2.1065,2.1067,2.1289,2.1294,2.1298,0,0,0,0,0,0,2.1054,2.106,2.1124,2.1085,2.108,2.1058,2.1058,2.1105,2.1075,2.1052,2.1046,2.1048,2.1054,2.1065,2.1067,2.1142,2.1058,2.1061,2.1063,2.1065,2.1293,2.1296,0,0,0,0,0,0,2.1056,2.106,2.1084,2.1081,2.1077,2.1079,2.1099,2.1133,2.1042,2.1054,2.1033,2.1029,2.1057,2.1059,2.1068,2.1142,2.1142,2.1058,2.106,2.1062,2.1063,0,0,0,0,0,0,0,2.1057,2.1033,2.1121,2.1078,2.1074,2.1128,2.1128,2.1128,2.1041,2.1037,2.1034,2.103,2.1039,2.1042,2.1046,2.1141,0,0,2.1057,2.1059,0,0,0,0,0,0,0,0,2.103,2.1032,2.1121,2.1121,2.1121,2.1128,2.1128,2.1128,2.104,2.1037,2.1035,2.1032,2.104,2.1043,2.1046,0,0,0,0,0,0,0,0,0,0,0,0,0,0,0,2.1121,2.1121,0,2.1128,2.1128,2.1128,2.104,2.1038,2.1035,2.1033,2.1041,2.1043,2.1045,0,0,0,0,0,0,0,0,0,0,0,0,0,0,0,0,0,0,0,0,0,0,0,0,0,0,0,0,0,0,0,0,0,0,0,0,0,0,0,0,0,0,0,0,0,0,0,0,0,0,0,0,0,0,0,0,0,0,0,0,0,0,0,0,0,0,0,0,0]}],[{"header":{"parameterUnit":"kt","parameterCategory":2,"dx":1,"dy":1,"la1":30.253999710083008,"la2":30.299108505249023,"lo1":-89.0895004272461,"lo2":-89.04439544677734,"nx":28,"ny":28,"refTime":"2022-09-20T15:00:00:Z","depth":0,"parameterNumber":2,"parameterNumberName":"V-component_of_WINDS"},"data":[-1.2717,-1.2756,-1.2777,-1.2832,-1.286,-1.2902,-1.2924,-1.2955,-1.2986,-1.3041,-1.3076,-1.3103,-1.3144,-1.3194,-1.3235,-1.3247,-1.3263,-1.3261,-1.3276,-1.3261,-1.326,-1.326,-1.3251,-1.3264,-1.3265,-1.3288,-1.3288,-1.3288,-1.2706,-1.2734,-1.2768,-1.2816,-1.2847,-1.2861,-1.2902,-1.2927,-1.2965,-1.3003,-1.3039,-1.3089,-1.3133,-1.3175,-1.3221,-1.3243,-1.3253,-1.3254,-1.3253,-1.3259,-1.3244,-1.3234,-1.3245,-1.3245,-1.3245,-1.3245,-1.3245,-1.3245,-1.2691,-1.2714,-1.2754,-1.2793,-1.2823,-1.2855,-1.2881,-1.2913,-1.2948,-1.2997,-1.3016,-1.306,-1.3104,-1.3171,-1.3199,-1.3236,-1.3239,-1.3247,-1.325,-1.3251,-1.325,-1.3214,-1.3245,-1.3245,-1.3245,-1.3245,-1.3245,0,-1.2687,-1.2703,-1.2737,-1.2778,-1.2807,-1.2842,-1.2877,-1.2894,-1.2936,-1.2964,-1.3007,-1.3036,-1.3093,-1.3137,-1.3186,-1.3214,-1.3233,-1.3238,-1.3244,-1.3235,-1.322,-1.3229,-1.3204,-1.3237,-1.3237,-1.3237,-1.3237,-1.3237,-1.2674,-1.2698,-1.275,-1.2772,-1.2796,-1.2831,-1.2856,-1.2891,-1.2917,-1.2967,-1.2986,-1.303,-1.3067,-1.3134,-1.3173,-1.3217,-1.3227,-1.3237,-1.3234,-1.3224,-1.3228,-1.3226,-1.323,-1.3237,-1.3237,-1.3237,-1.3237,0,-1.2666,-1.2699,-1.2742,-1.2792,-1.2806,-1.2829,-1.2873,-1.2898,-1.2926,-1.2965,-1.2976,-1.302,-1.3063,-1.31,-1.3156,-1.3175,-1.3218,-1.3226,-1.3203,-1.3207,-1.322,-1.3219,-1.3256,-1.3264,-1.3249,-1.3249,-1.3249,0,-1.2668,-1.2697,-1.2746,-1.2769,-1.2804,-1.2838,-1.2872,-1.2899,-1.2935,-1.2966,-1.2992,-1.3021,-1.3064,-1.3099,-1.3126,-1.3168,-1.3178,-1.3195,-1.3202,-1.3193,-1.3191,-1.3208,-1.3207,-1.3216,-1.3216,-1.3215,-1.3215,0,-1.265,-1.2711,-1.2748,-1.2768,-1.2824,-1.2842,-1.2867,-1.2908,-1.2932,-1.2971,-1.2988,-1.303,-1.3054,-1.3088,-1.3122,-1.3118,-1.3173,-1.3176,-1.3191,-1.319,-1.3201,-1.32,-1.3224,-1.3215,-1.3215,-1.3215,-1.3215,0,-1.2658,-1.2693,-1.2742,-1.279,-1.2805,-1.283,-1.2873,-1.2903,-1.2945,-1.2963,-1.2993,-1.3015,-1.3054,-1.3053,-1.3108,-1.3093,-1.3116,-1.3135,-1.3137,-1.3143,-1.3141,-1.315,-1.3168,-1.3172,-1.3149,-1.3148,-1.3148,0,-1.2629,-1.2687,-1.2716,-1.2762,-1.2794,-1.2821,-1.285,-1.2885,-1.2911,-1.2944,-1.2974,-1.3011,-1.3018,-1.3035,-1.3057,-1.309,-1.3109,-1.3088,-1.3138,-1.3139,-1.3126,-1.3143,-1.3136,-1.316,-1.3141,-1.3142,-1.3142,0,-1.261,-1.2677,-1.2683,-1.2706,-1.2757,-1.2784,-1.2817,-1.286,-1.288,-1.2917,-1.2946,-1.2999,-1.3007,-1.3034,-1.3057,-1.3078,-1.3097,-1.3084,-1.3085,-1.3085,-1.3141,-1.3134,-1.3138,-1.3108,-1.3109,-1.311,-1.3137,0,-1.2614,-1.2647,-1.2665,-1.2714,-1.2741,-1.2771,-1.2808,-1.2831,-1.2849,-1.2876,-1.292,-1.2959,-1.3004,-1.3018,-1.3036,-1.3072,-1.3072,-1.308,-1.3082,-1.3093,-1.3103,-1.3107,-1.3064,-1.3064,-1.3064,-1.3065,0,0,-1.2579,-1.2626,-1.2656,-1.2688,-1.2712,-1.2738,-1.2768,-1.2795,-1.2848,-1.2865,-1.2866,-1.2946,-1.2978,-1.3028,-1.3034,-1.3052,-1.3063,-1.3057,-1.3087,-1.3089,-1.3092,-1.3102,-1.3105,-1.3065,-1.3065,-1.3065,-1.3065,0,-1.2587,-1.2615,-1.2643,-1.2672,-1.2715,-1.2741,-1.2747,-1.2795,-1.2814,-1.2856,-1.2878,-1.291,-1.2972,-1.3003,-1.3027,-1.3052,-1.3068,-1.3063,-1.3064,-1.3088,-1.309,-1.3092,-1.3102,-1.3105,-1.3066,-1.3066,-1.3066,0,-1.2576,-1.261,-1.2627,-1.268,-1.2709,-1.2741,-1.2752,-1.2785,-1.281,-1.2838,-1.288,-1.2907,-1.2951,-1.2993,-1.3013,-1.3015,-1.307,-1.3059,-1.3059,-1.3062,-1.3087,-1.3089,-1.3091,-1.3064,-1.3064,-1.3064,0,0,-1.2578,-1.2608,-1.2656,-1.2685,-1.2701,-1.274,-1.2761,-1.278,-1.2818,-1.2833,-1.2867,-1.2904,-1.2941,-1.2964,-1.3001,-1.3041,-1.3054,-1.3057,-1.3057,-1.3057,-1.306,-1.3085,-1.3088,-1.3063,-1.3063,-1.3063,0,0,-1.258,-1.2635,-1.2646,-1.2684,-1.2718,-1.2767,-1.2785,-1.28,-1.2835,-1.2836,-1.2872,-1.2884,-1.2924,-1.2949,-1.2936,-1.3002,-1.3004,-1.3008,-1.2984,-1.2985,-1.2985,-1.2978,-1.2954,0,0,0,0,0,-1.2606,-1.2628,-1.2637,-1.2649,-1.2717,-1.2762,-1.2771,-1.28,-1.2801,-1.2814,-1.2845,-1.286,-1.295,-1.2939,-1.2951,-1.2965,-1.3055,-1.3056,-1.3058,-1.3037,-1.3037,-1.3037,0,0,0,0,0,0,-1.2611,-1.2625,-1.2637,-1.2686,-1.2702,-1.2762,-1.2769,-1.2777,-1.28,-1.2802,-1.2853,-1.2862,-1.2889,-1.2935,-1.2946,-1.2958,-1.295,-1.3055,-1.3057,-1.3058,-1.3037,-1.3037,-1.3037,0,0,0,0,0,-1.2615,-1.2627,-1.2728,-1.2686,-1.27,-1.2744,-1.2768,-1.2775,-1.2794,-1.2841,-1.285,-1.2813,-1.2888,-1.2899,-1.2942,-1.2953,-1.2943,-1.2947,-1.3056,-1.3057,-1.3058,-1.3037,0,0,0,0,0,0,-1.2618,-1.2634,-1.2732,-1.2737,-1.268,-1.2742,-1.2752,-1.2773,-1.2832,-1.2841,-1.2803,-1.2804,-1.2888,-1.2897,-1.2905,-1.2949,-1.2937,-1.2941,-1.2944,-1.3057,-1.3058,-1.3058,0,0,0,0,0,0,-1.2628,-1.2639,-1.2734,-1.2724,-1.2729,-1.2739,-1.2748,-1.2789,-1.2833,-1.2791,-1.2793,-1.2803,-1.2876,-1.2895,-1.2901,-1.2964,-1.2933,-1.2937,-1.2939,-1.2941,-1.3057,-1.3058,0,0,0,0,0,0,-1.2633,-1.2642,-1.2723,-1.2727,-1.2731,-1.2793,-1.2776,-1.2845,-1.2822,-1.2788,-1.2821,-1.282,-1.2874,-1.2882,-1.2899,-1.2958,-1.2962,-1.2933,-1.2936,-1.2938,-1.2939,0,0,0,0,0,0,0,-1.2637,-1.2571,-1.27,-1.2728,-1.2732,-1.2786,-1.2788,-1.2789,-1.2822,-1.2821,-1.2821,-1.282,-1.2912,-1.2916,-1.292,-1.2954,0,0,-1.2933,-1.2935,0,0,0,0,0,0,0,0,-1.2568,-1.257,-1.27,-1.2701,-1.2702,-1.2787,-1.2788,-1.2789,-1.2822,-1.2821,-1.2821,-1.2821,-1.2913,-1.2917,-1.292,0,0,0,0,0,0,0,0,0,0,0,0,0,0,0,-1.27,-1.2701,0,-1.2787,-1.2788,-1.2789,-1.2822,-1.2821,-1.2821,-1.2821,-1.2914,-1.2917,-1.292,0,0,0,0,0,0,0,0,0,0,0,0,0,0,0,0,0,0,0,0,0,0,0,0,0,0,0,0,0,0,0,0,0,0,0,0,0,0,0,0,0,0,0,0,0,0,0,0,0,0,0,0,0,0,0,0,0,0,0,0,0,0,0,0,0,0,0,0,0]}]]]